Tracking 29892 objects as of 21-Nov-2024
HD Live streaming from Space Station
objects crossing your sky now

STARLINK-4621

Track STARLINK-4621 now!
10-day predictions


NORAD ID: 53676
Int'l Code: 2022-105AE
Perigee: 568.9 km
Apogee: 571.3 km
Inclination: 97.7 °
Period: 95.9 minutes
Semi major axis: 6941 km
RCS: Unknown
Launch date: August 31, 2022
Source: United States (US)
Launch site: AIR FORCE WESTERN TEST RANGE (AFWTR)
Your satellite tracking list
Your tracking list is empty




NASA's NSSDC Master Catalog

Two Line Element Set (TLE):
1 53676U 22105AE  24326.10208451  .00000961  00000-0  79407-4 0  9992
2 53676  97.6560 204.6864 0001695  85.9244 274.2174 15.01271073122464
Source of the keplerian elements: AFSPC